LOT1KJ LIMC-EPWA

Flight info

Callsign LOT1KJ
Flight time 1h 41m
Altitude 38000
Route OSKOR DCT MALUG/N0460F390 DCT GAMLI DCT STO DCT LEDVA DCT NETIR DCT USALO DCT KOTEK DCT LOGDA
Aircraft B38M/M-SDE1FGHILORVWXY/HB1

Departure

Time 2026-04-30 08:08
Airport Milan Malpensa International Airport (LIMC)

Arrival

Time 2026-04-30 09:50
Airport Warsaw Chopin Airport (EPWA)
Time Latitude Longitude Altitude Speed Heading
2026-04-30 07:26 45.62705 8.71556 724 ft 0 kts 349°
2026-04-30 07:27 45.62699 8.71557 739 ft 0 kts 349°
2026-04-30 07:27 45.62694 8.71559 738 ft 0 kts 349°
2026-04-30 07:56 45.62688 8.71560 739 ft 2 kts 350°
2026-04-30 07:57 45.62672 8.71564 737 ft 2 kts 350°
2026-04-30 07:57 45.62656 8.71568 736 ft 2 kts 351°
2026-04-30 07:57 45.62639 8.71572 737 ft 2 kts 354°
2026-04-30 07:57 45.62623 8.71573 739 ft 2 kts 15°
2026-04-30 07:58 45.62614 8.71560 739 ft 1 kts 78°
2026-04-30 07:58 45.62613 8.71557 739 ft 0 kts 79°
2026-04-30 08:00 45.62616 8.71575 739 ft 5 kts 79°
2026-04-30 08:00 45.62631 8.71686 739 ft 17 kts 79°
2026-04-30 08:01 45.62651 8.71839 739 ft 17 kts 79°
2026-04-30 08:01 45.62677 8.72029 739 ft 21 kts 78°
2026-04-30 08:01 45.62765 8.72109 739 ft 18 kts 349°
2026-04-30 08:01 45.62896 8.72072 739 ft 21 kts 348°
2026-04-30 08:02 45.63197 8.71991 739 ft 24 kts 349°
2026-04-30 08:02 45.63367 8.71944 739 ft 26 kts 349°
2026-04-30 08:03 45.63743 8.71840 739 ft 29 kts 349°
2026-04-30 08:03 45.63891 8.71902 740 ft 0 kts 81°
2026-04-30 08:04 45.63892 8.71903 740 ft 1 kts 70°
2026-04-30 08:04 45.63905 8.71965 740 ft 12 kts 79°
2026-04-30 08:05 45.63915 8.72148 740 ft 25 kts 87°
2026-04-30 08:05 45.63935 8.72320 739 ft 16 kts 43°
2026-04-30 08:05 45.64037 8.72320 738 ft 16 kts 349°
2026-04-30 08:05 45.64145 8.72292 739 ft 17 kts 349°
2026-04-30 08:06 45.64275 8.72256 738 ft 20 kts 349°
2026-04-30 08:06 45.64413 8.72207 739 ft 21 kts 322°
2026-04-30 08:06 45.64492 8.72072 738 ft 14 kts 308°
2026-04-30 08:06 45.64496 8.71948 739 ft 13 kts 234°
2026-04-30 08:07 45.64410 8.71913 740 ft 13 kts 170°
2026-04-30 08:07 45.64397 8.71917 738 ft 0 kts 169°
2026-04-30 08:07 45.64396 8.71917 740 ft 3 kts 169°
2026-04-30 08:08 45.64135 8.71988 741 ft 75 kts 169°
2026-04-30 08:08 45.63417 8.72185 741 ft 136 kts 169°
2026-04-30 08:08 45.62325 8.72456 912 ft 172 kts 168°
2026-04-30 08:08 45.61144 8.72764 1722 ft 171 kts 168°
2026-04-30 08:09 45.59969 8.73005 2514 ft 172 kts 169°
2026-04-30 08:09 45.58747 8.73213 3159 ft 182 kts 169°
2026-04-30 08:09 45.57432 8.73413 3687 ft 201 kts 169°
2026-04-30 08:09 45.56006 8.73783 4241 ft 216 kts 152°
2026-04-30 08:10 45.54917 8.75285 4774 ft 230 kts 116°
2026-04-30 08:10 45.54565 8.77486 5646 ft 233 kts 89°
2026-04-30 08:10 45.54883 8.79783 6626 ft 236 kts 78°
2026-04-30 08:10 45.55219 8.82090 7351 ft 246 kts 79°
2026-04-30 08:11 45.55559 8.84490 8226 ft 248 kts 78°
2026-04-30 08:11 45.55911 8.86935 8988 ft 257 kts 77°
2026-04-30 08:11 45.56271 8.89435 9819 ft 261 kts 76°
2026-04-30 08:11 45.56641 8.92013 10584 ft 267 kts 76°
2026-04-30 08:12 45.56979 8.94660 11253 ft 277 kts 78°
2026-04-30 08:12 45.57302 8.97419 11727 ft 294 kts 78°
2026-04-30 08:12 45.57652 9.00380 12102 ft 312 kts 78°
2026-04-30 08:12 45.58025 9.03518 12433 ft 330 kts 78°
2026-04-30 08:13 45.58420 9.06841 12734 ft 347 kts 78°
2026-04-30 08:13 45.58831 9.10301 13110 ft 361 kts 78°
2026-04-30 08:13 45.59253 9.13858 13811 ft 363 kts 78°
2026-04-30 08:13 45.59674 9.17426 14483 ft 367 kts 78°
2026-04-30 08:14 45.60099 9.21034 15098 ft 370 kts 78°
2026-04-30 08:14 45.60520 9.24614 15720 ft 372 kts 78°
2026-04-30 08:14 45.60948 9.28270 16327 ft 375 kts 78°
2026-04-30 08:14 45.61380 9.31964 16821 ft 378 kts 78°
2026-04-30 08:15 45.61814 9.35688 17390 ft 381 kts 78°
2026-04-30 08:15 45.62249 9.39433 17953 ft 384 kts 78°
2026-04-30 08:15 45.62685 9.43200 18464 ft 387 kts 78°
2026-04-30 08:15 45.63125 9.47002 18938 ft 390 kts 78°
2026-04-30 08:16 45.63566 9.50838 19402 ft 392 kts 78°
2026-04-30 08:16 45.64010 9.54700 19845 ft 395 kts 78°
2026-04-30 08:16 45.64304 9.57265 20292 ft 396 kts 78°
2026-04-30 08:16 45.65129 9.62341 20857 ft 396 kts 64°
2026-04-30 08:17 45.66367 9.65844 21292 ft 397 kts 60°
2026-04-30 08:17 45.67648 9.69356 21685 ft 400 kts 60°
2026-04-30 08:17 45.68951 9.72887 22118 ft 402 kts 59°
2026-04-30 08:17 45.70265 9.76422 22534 ft 405 kts 59°
2026-04-30 08:18 45.71145 9.78785 22830 ft 406 kts 59°
2026-04-30 08:18 45.72478 9.82363 23251 ft 409 kts 59°
2026-04-30 08:18 45.73818 9.85968 23677 ft 411 kts 59°
2026-04-30 08:18 45.75604 9.90774 24217 ft 415 kts 59°
2026-04-30 08:19 45.76960 9.94430 24571 ft 417 kts 59°
2026-04-30 08:19 45.78321 9.98105 24970 ft 419 kts 59°
2026-04-30 08:19 45.79229 10.00558 25216 ft 421 kts 59°
2026-04-30 08:19 45.80607 10.04285 25606 ft 424 kts 59°
2026-04-30 08:20 45.81990 10.08031 25983 ft 426 kts 59°
2026-04-30 08:20 45.83379 10.11801 26340 ft 429 kts 59°
2026-04-30 08:20 45.84776 10.15595 26701 ft 432 kts 59°
2026-04-30 08:20 45.86180 10.19415 27063 ft 434 kts 59°
2026-04-30 08:21 45.88052 10.24514 27518 ft 438 kts 59°
2026-04-30 08:21 45.89469 10.28384 27876 ft 440 kts 59°
2026-04-30 08:21 45.90414 10.30963 28092 ft 442 kts 59°
2026-04-30 08:21 45.91846 10.34882 28442 ft 444 kts 59°
2026-04-30 08:22 45.93284 10.38823 28774 ft 446 kts 59°
2026-04-30 08:22 45.94724 10.42776 29076 ft 448 kts 60°
2026-04-30 08:22 45.96645 10.48055 29492 ft 451 kts 60°
2026-04-30 08:22 45.98099 10.52059 29792 ft 453 kts 60°
2026-04-30 08:23 45.99083 10.54771 30007 ft 454 kts 60°
2026-04-30 08:23 46.00546 10.58808 30285 ft 456 kts 60°
2026-04-30 08:23 46.01997 10.62820 30546 ft 458 kts 60°
2026-04-30 08:23 46.03465 10.66884 30869 ft 458 kts 60°
2026-04-30 08:24 46.04930 10.70947 31240 ft 456 kts 60°
2026-04-30 08:24 46.06388 10.74996 31600 ft 455 kts 60°
2026-04-30 08:24 46.07843 10.79042 31962 ft 454 kts 60°
2026-04-30 08:24 46.09291 10.83075 32327 ft 453 kts 60°
2026-04-30 08:25 46.10737 10.87108 32666 ft 452 kts 60°
2026-04-30 08:25 46.12176 10.91127 32997 ft 451 kts 60°
2026-04-30 08:25 46.13614 10.95152 33348 ft 450 kts 60°
2026-04-30 08:25 46.15043 10.99154 33680 ft 449 kts 60°
2026-04-30 08:26 46.16450 11.03105 34036 ft 448 kts 60°
2026-04-30 08:26 46.17824 11.06965 34339 ft 448 kts 60°
2026-04-30 08:26 46.19288 11.11085 34592 ft 447 kts 60°
2026-04-30 08:26 46.20708 11.15088 34831 ft 447 kts 60°
2026-04-30 08:27 46.22123 11.19083 35065 ft 447 kts 60°
2026-04-30 08:27 46.23535 11.23077 35268 ft 448 kts 60°
2026-04-30 08:27 46.24952 11.27090 35492 ft 448 kts 60°
2026-04-30 08:27 46.26367 11.31102 35700 ft 449 kts 60°
2026-04-30 08:28 46.27787 11.35134 35888 ft 449 kts 60°
2026-04-30 08:28 46.29150 11.39011 36070 ft 449 kts 60°
2026-04-30 08:28 46.30566 11.43046 36256 ft 450 kts 60°
2026-04-30 08:28 46.31982 11.47086 36423 ft 450 kts 60°
2026-04-30 08:29 46.33390 11.51108 36593 ft 451 kts 60°
2026-04-30 08:29 46.34808 11.55166 36743 ft 451 kts 60°
2026-04-30 08:29 46.36219 11.59208 36884 ft 452 kts 60°
2026-04-30 08:29 46.37641 11.63291 37051 ft 452 kts 60°
2026-04-30 08:30 46.39055 11.67357 37211 ft 452 kts 60°
2026-04-30 08:30 46.40450 11.71372 37376 ft 453 kts 60°
2026-04-30 08:30 46.41865 11.75454 37540 ft 454 kts 60°
2026-04-30 08:30 46.43280 11.79542 37689 ft 454 kts 60°
2026-04-30 08:31 46.44700 11.83649 37844 ft 455 kts 60°
2026-04-30 08:31 46.46113 11.87744 38000 ft 455 kts 60°
2026-04-30 08:31 46.47533 11.91861 38146 ft 456 kts 60°
2026-04-30 08:31 46.48950 11.95981 38271 ft 457 kts 60°
2026-04-30 08:32 46.50345 12.00042 38292 ft 456 kts 60°
2026-04-30 08:32 46.53173 12.08292 38289 ft 456 kts 60°
2026-04-30 08:33 46.55997 12.16555 38314 ft 456 kts 60°
2026-04-30 08:33 46.58809 12.24811 38322 ft 456 kts 61°
2026-04-30 08:34 46.61599 12.33024 38317 ft 456 kts 61°
2026-04-30 08:34 46.64404 12.41304 38317 ft 456 kts 61°
2026-04-30 08:35 46.67196 12.49572 38315 ft 455 kts 61°
2026-04-30 08:35 46.69991 12.57855 38302 ft 455 kts 60°
2026-04-30 08:35 46.71712 12.61591 38287 ft 447 kts 45°
2026-04-30 08:36 46.73784 12.64971 38273 ft 449 kts 47°
2026-04-30 08:36 46.77786 12.71986 38289 ft 449 kts 48°
2026-04-30 08:37 46.81770 12.78993 38285 ft 448 kts 48°
2026-04-30 08:37 46.85745 12.86005 38289 ft 448 kts 48°
2026-04-30 08:38 46.89678 12.92960 38293 ft 446 kts 48°
2026-04-30 08:38 46.93621 12.99950 38292 ft 445 kts 48°
2026-04-30 08:39 46.97554 13.06941 38298 ft 444 kts 48°
2026-04-30 08:39 47.01479 13.13937 38307 ft 444 kts 48°
2026-04-30 08:40 47.05358 13.20865 38321 ft 443 kts 48°
2026-04-30 08:40 47.09256 13.27847 38314 ft 442 kts 48°
2026-04-30 08:41 47.13142 13.34823 38306 ft 441 kts 48°
2026-04-30 08:41 47.16997 13.41765 38309 ft 440 kts 48°
2026-04-30 08:42 47.20869 13.48752 38537 ft 441 kts 48°
2026-04-30 08:42 47.22805 13.52253 38700 ft 440 kts 48°
2026-04-30 08:42 47.24733 13.55744 38895 ft 440 kts 48°
2026-04-30 08:43 47.28597 13.62752 39101 ft 441 kts 48°
2026-04-30 08:43 47.30523 13.66253 39247 ft 439 kts 48°
2026-04-30 08:43 47.32446 13.69752 39323 ft 439 kts 48°
2026-04-30 08:44 47.36256 13.76699 39344 ft 439 kts 48°
2026-04-30 08:44 47.40093 13.83713 39354 ft 439 kts 48°
2026-04-30 08:45 47.43924 13.90734 39357 ft 438 kts 48°
2026-04-30 08:45 47.47739 13.97745 39370 ft 438 kts 48°
2026-04-30 08:46 47.51517 14.04705 39385 ft 437 kts 49°
2026-04-30 08:46 47.55318 14.11725 39386 ft 436 kts 48°
2026-04-30 08:47 47.59103 14.18735 39386 ft 435 kts 48°
2026-04-30 08:47 47.62883 14.25751 39413 ft 436 kts 48°
2026-04-30 08:48 47.66627 14.32717 39414 ft 435 kts 48°
2026-04-30 08:48 47.70389 14.39738 39418 ft 434 kts 48°
2026-04-30 08:49 47.74138 14.46750 39419 ft 434 kts 48°
2026-04-30 08:49 47.77857 14.53729 39428 ft 433 kts 48°
2026-04-30 08:50 47.81599 14.60761 39432 ft 433 kts 48°
2026-04-30 08:50 47.85335 14.67799 39440 ft 434 kts 48°
2026-04-30 08:51 47.89069 14.74851 39441 ft 433 kts 48°
2026-04-30 08:51 47.92468 14.82214 39450 ft 436 kts 54°
2026-04-30 08:52 47.95701 14.89870 39442 ft 436 kts 54°
2026-04-30 08:52 47.98924 14.97563 39448 ft 436 kts 54°
2026-04-30 08:53 48.02140 15.05264 39458 ft 437 kts 54°
2026-04-30 08:53 48.05329 15.12924 39455 ft 437 kts 54°
2026-04-30 08:54 48.08539 15.20656 39457 ft 437 kts 54°
2026-04-30 08:54 48.11746 15.28402 39460 ft 438 kts 54°
2026-04-30 08:55 48.14948 15.36160 39462 ft 438 kts 54°
2026-04-30 08:55 48.18121 15.43868 39468 ft 438 kts 54°
2026-04-30 08:56 48.21309 15.51635 39464 ft 438 kts 55°
2026-04-30 08:56 48.24494 15.59419 39470 ft 437 kts 55°
2026-04-30 08:57 48.27670 15.67200 39468 ft 437 kts 55°
2026-04-30 08:57 48.30822 15.74946 39466 ft 437 kts 55°
2026-04-30 08:58 48.33982 15.82735 39466 ft 437 kts 55°
2026-04-30 08:58 48.37136 15.90531 39458 ft 437 kts 55°
2026-04-30 08:59 48.40287 15.98336 39465 ft 436 kts 55°
2026-04-30 08:59 48.43437 16.06054 39460 ft 436 kts 54°
2026-04-30 09:00 48.46616 16.13823 39460 ft 436 kts 54°
2026-04-30 09:00 48.49795 16.21620 39457 ft 436 kts 54°
2026-04-30 09:01 48.52971 16.29431 39456 ft 436 kts 54°
2026-04-30 09:01 48.56117 16.37191 39453 ft 437 kts 54°
2026-04-30 09:02 48.60863 16.48939 39458 ft 437 kts 55°
2026-04-30 09:02 48.64022 16.56788 39455 ft 437 kts 55°
2026-04-30 09:03 48.67171 16.64637 39462 ft 437 kts 55°
2026-04-30 09:03 48.70297 16.72448 39477 ft 437 kts 55°
2026-04-30 09:04 48.73565 16.80169 39469 ft 433 kts 48°
2026-04-30 09:04 48.77283 16.87366 39471 ft 434 kts 49°
2026-04-30 09:05 48.81011 16.94559 39464 ft 434 kts 49°
2026-04-30 09:05 48.84712 17.01709 39460 ft 434 kts 49°
2026-04-30 09:06 48.88436 17.08924 39460 ft 434 kts 49°
2026-04-30 09:06 48.92160 17.16155 39462 ft 434 kts 49°
2026-04-30 09:07 48.95879 17.23399 39457 ft 435 kts 49°
2026-04-30 09:07 48.99577 17.30619 39456 ft 435 kts 49°
2026-04-30 09:08 49.03289 17.37886 39458 ft 435 kts 49°
2026-04-30 09:08 49.07007 17.45186 39456 ft 436 kts 49°
2026-04-30 09:09 49.10726 17.52507 39458 ft 436 kts 49°
2026-04-30 09:09 49.14438 17.59836 39456 ft 437 kts 49°
2026-04-30 09:10 49.18128 17.67140 39455 ft 437 kts 49°
2026-04-30 09:10 49.21835 17.74498 39453 ft 437 kts 50°
2026-04-30 09:11 49.25545 17.81882 39456 ft 438 kts 50°
2026-04-30 09:11 49.29249 17.89276 39450 ft 438 kts 50°
2026-04-30 09:12 49.32934 17.96652 39451 ft 439 kts 50°
2026-04-30 09:12 49.36639 18.04088 39458 ft 439 kts 50°
2026-04-30 09:13 49.40334 18.11524 39464 ft 439 kts 50°
2026-04-30 09:13 49.44006 18.18935 39468 ft 439 kts 50°
2026-04-30 09:14 49.47698 18.26407 39464 ft 438 kts 50°
2026-04-30 09:14 49.51371 18.33862 39471 ft 438 kts 50°
2026-04-30 09:15 49.55047 18.41346 39465 ft 437 kts 50°
2026-04-30 09:15 49.58707 18.48815 39459 ft 437 kts 50°
2026-04-30 09:16 49.62335 18.56238 39459 ft 436 kts 50°
2026-04-30 09:16 49.65984 18.63723 39451 ft 436 kts 50°
2026-04-30 09:17 49.69671 18.71131 39440 ft 433 kts 43°
2026-04-30 09:17 49.74057 18.77482 39449 ft 432 kts 41°
2026-04-30 09:18 49.78416 18.83799 39450 ft 432 kts 41°
2026-04-30 09:18 49.82795 18.90138 39446 ft 432 kts 41°
2026-04-30 09:19 49.87182 18.96505 39446 ft 432 kts 41°
2026-04-30 09:19 49.91560 19.02874 39444 ft 431 kts 41°
2026-04-30 09:20 49.95750 19.09448 39450 ft 433 kts 45°
2026-04-30 09:20 49.99878 19.16266 39441 ft 432 kts 44°
2026-04-30 09:21 50.04007 19.23062 39440 ft 432 kts 44°
2026-04-30 09:21 50.08131 19.29866 39439 ft 432 kts 44°
2026-04-30 09:22 50.11649 19.35682 39447 ft 432 kts 44°
2026-04-30 09:22 50.15740 19.42465 39446 ft 432 kts 44°
2026-04-30 09:23 50.19855 19.49304 39449 ft 432 kts 45°
2026-04-30 09:23 50.23960 19.56146 39449 ft 432 kts 45°
2026-04-30 09:24 50.28067 19.63010 39439 ft 432 kts 45°
2026-04-30 09:24 50.32139 19.69833 39445 ft 432 kts 45°
2026-04-30 09:25 50.36233 19.76711 39436 ft 432 kts 45°
2026-04-30 09:25 50.40314 19.83588 39432 ft 432 kts 45°
2026-04-30 09:26 50.44397 19.90485 39229 ft 429 kts 45°
2026-04-30 09:26 50.46424 19.93916 38995 ft 427 kts 45°
2026-04-30 09:26 50.48416 19.97294 38743 ft 427 kts 45°
2026-04-30 09:27 50.50428 20.00709 38499 ft 426 kts 45°
2026-04-30 09:27 50.52434 20.04118 38239 ft 424 kts 45°
2026-04-30 09:27 50.54436 20.07525 38002 ft 423 kts 45°
2026-04-30 09:27 50.56428 20.10921 37759 ft 422 kts 45°
2026-04-30 09:28 50.58413 20.14307 37495 ft 418 kts 45°
2026-04-30 09:28 50.60384 20.17671 36689 ft 420 kts 45°
2026-04-30 09:28 50.62376 20.21078 35823 ft 423 kts 45°
2026-04-30 09:28 50.64442 20.24205 35426 ft 413 kts 35°
2026-04-30 09:29 50.66920 20.26417 34801 ft 410 kts 25°
2026-04-30 09:29 50.69535 20.28307 33870 ft 413 kts 25°
2026-04-30 09:29 50.72133 20.30147 33272 ft 407 kts 25°
2026-04-30 09:29 50.74739 20.31967 32165 ft 413 kts 25°
2026-04-30 09:30 50.77360 20.33782 31465 ft 409 kts 25°
2026-04-30 09:30 50.79962 20.35579 30664 ft 408 kts 25°
2026-04-30 09:30 50.82570 20.37379 29685 ft 409 kts 25°
2026-04-30 09:30 50.85135 20.39150 28853 ft 407 kts 25°
2026-04-30 09:31 50.87715 20.40934 28027 ft 405 kts 25°
2026-04-30 09:31 50.90279 20.42710 27353 ft 399 kts 25°
2026-04-30 09:31 50.92807 20.44461 26687 ft 394 kts 25°
2026-04-30 09:31 50.95354 20.46229 25961 ft 405 kts 24°
2026-04-30 09:32 50.97948 20.48032 25284 ft 410 kts 25°
2026-04-30 09:32 51.00572 20.49856 24608 ft 411 kts 24°
2026-04-30 09:32 51.03183 20.51676 23928 ft 409 kts 24°
2026-04-30 09:32 51.05784 20.53490 23153 ft 406 kts 24°
2026-04-30 09:33 51.08325 20.55265 22475 ft 403 kts 24°
2026-04-30 09:33 51.10883 20.57052 21815 ft 399 kts 24°
2026-04-30 09:33 51.13415 20.58825 21157 ft 396 kts 24°
2026-04-30 09:33 51.15927 20.60585 20657 ft 394 kts 24°
2026-04-30 09:34 51.18385 20.62309 20404 ft 379 kts 24°
2026-04-30 09:34 51.20748 20.63969 20176 ft 364 kts 24°
2026-04-30 09:34 51.23024 20.65569 19959 ft 350 kts 24°
2026-04-30 09:34 51.25214 20.67111 19759 ft 338 kts 24°
2026-04-30 09:35 51.27294 20.68576 19573 ft 326 kts 24°
2026-04-30 09:35 51.29331 20.70111 19141 ft 323 kts 26°
2026-04-30 09:35 51.31340 20.71687 18784 ft 321 kts 26°
2026-04-30 09:35 51.33352 20.73257 18344 ft 322 kts 26°
2026-04-30 09:36 51.35363 20.74825 17911 ft 321 kts 26°
2026-04-30 09:36 51.37369 20.76388 17496 ft 320 kts 26°
2026-04-30 09:36 51.39361 20.77942 17080 ft 318 kts 26°
2026-04-30 09:36 51.41345 20.79490 16670 ft 317 kts 26°
2026-04-30 09:37 51.43292 20.81011 16268 ft 315 kts 26°
2026-04-30 09:37 51.45262 20.82551 15862 ft 314 kts 26°
2026-04-30 09:37 51.47222 20.84085 15449 ft 314 kts 26°
2026-04-30 09:37 51.49180 20.85619 15043 ft 313 kts 26°
2026-04-30 09:38 51.51135 20.87152 14646 ft 312 kts 26°
2026-04-30 09:38 51.53086 20.88682 14225 ft 312 kts 26°
2026-04-30 09:38 51.55031 20.90211 13775 ft 311 kts 26°
2026-04-30 09:38 51.56968 20.91736 13347 ft 308 kts 26°
2026-04-30 09:39 51.58881 20.93241 12944 ft 304 kts 26°
2026-04-30 09:39 51.60739 20.94704 12565 ft 299 kts 26°
2026-04-30 09:39 51.62593 20.96166 12182 ft 294 kts 26°
2026-04-30 09:39 51.64125 20.97373 11859 ft 291 kts 26°
2026-04-30 09:40 51.65932 20.98801 11481 ft 288 kts 26°
2026-04-30 09:40 51.67717 21.00214 11110 ft 284 kts 25°
2026-04-30 09:40 51.69479 21.01607 10735 ft 281 kts 25°
2026-04-30 09:40 51.71226 21.02991 10378 ft 278 kts 25°
2026-04-30 09:41 51.72956 21.04362 9983 ft 275 kts 25°
2026-04-30 09:41 51.74643 21.05702 9602 ft 272 kts 25°
2026-04-30 09:41 51.76333 21.07044 9234 ft 269 kts 25°
2026-04-30 09:41 51.77999 21.08367 8896 ft 266 kts 25°
2026-04-30 09:42 51.79659 21.09686 8541 ft 264 kts 25°
2026-04-30 09:42 51.81300 21.10990 8192 ft 263 kts 25°
2026-04-30 09:42 51.82932 21.12291 7838 ft 260 kts 25°
2026-04-30 09:42 51.84540 21.13574 7537 ft 257 kts 25°
2026-04-30 09:43 51.86139 21.14852 7153 ft 257 kts 25°
2026-04-30 09:43 51.87764 21.16144 6595 ft 265 kts 25°
2026-04-30 09:43 51.89439 21.17476 6009 ft 270 kts 25°
2026-04-30 09:43 51.91207 21.18316 5568 ft 271 kts
2026-04-30 09:44 51.93022 21.17614 5119 ft 272 kts 332°
2026-04-30 09:44 51.94606 21.15980 4818 ft 268 kts 328°
2026-04-30 09:44 51.96199 21.14459 4533 ft 264 kts 332°
2026-04-30 09:44 51.97799 21.13070 4152 ft 257 kts 333°
2026-04-30 09:45 51.99265 21.11798 3901 ft 221 kts 332°
2026-04-30 09:45 52.00541 21.10682 3698 ft 198 kts 332°
2026-04-30 09:45 52.01672 21.09704 3528 ft 168 kts 333°
2026-04-30 09:45 52.02635 21.08880 3368 ft 155 kts 332°
2026-04-30 09:46 52.03559 21.08079 3097 ft 146 kts 331°
2026-04-30 09:46 52.04471 21.07277 2894 ft 149 kts 332°
2026-04-30 09:46 52.05389 21.06475 2707 ft 151 kts 329°
2026-04-30 09:46 52.06308 21.05657 2508 ft 150 kts 333°
2026-04-30 09:47 52.07228 21.04893 2331 ft 149 kts 331°
2026-04-30 09:47 52.08138 21.04062 2132 ft 151 kts 331°
2026-04-30 09:47 52.09065 21.03260 1942 ft 150 kts 333°
2026-04-30 09:47 52.09971 21.02489 1667 ft 147 kts 330°
2026-04-30 09:48 52.10824 21.01733 1572 ft 131 kts 332°
2026-04-30 09:48 52.11616 21.01041 1272 ft 129 kts 331°
2026-04-30 09:48 52.12393 21.00366 1113 ft 129 kts 332°
2026-04-30 09:48 52.13186 20.99669 907 ft 129 kts 331°
2026-04-30 09:49 52.13976 20.98985 692 ft 128 kts 332°
2026-04-30 09:49 52.14758 20.98306 536 ft 127 kts 331°
2026-04-30 09:49 52.15541 20.97616 400 ft 128 kts 330°
2026-04-30 09:49 52.16293 20.96958 349 ft 112 kts 330°
2026-04-30 09:50 52.16834 20.96482 339 ft 56 kts 333°
2026-04-30 09:50 52.17037 20.96306 335 ft 20 kts 331°
2026-04-30 09:50 52.17176 20.96247 339 ft 22 kts 354°
2026-04-30 09:50 52.17312 20.96245 341 ft 8 kts
2026-04-30 09:51 52.17357 20.96246 340 ft 8 kts
2026-04-30 09:51 52.17393 20.96279 349 ft 6 kts 55°
2026-04-30 09:51 52.17394 20.96283 348 ft 0 kts 57°
2026-04-30 09:52 52.17407 20.96320 339 ft 11 kts 61°
2026-04-30 09:53 52.17466 20.96497 344 ft 24 kts 62°
2026-04-30 09:53 52.17554 20.96699 339 ft 14 kts 59°
2026-04-30 09:53 52.17611 20.96851 341 ft 17 kts 58°
2026-04-30 09:53 52.17625 20.96922 351 ft 2 kts 105°
2026-04-30 09:54 52.17595 20.96971 345 ft 12 kts 150°
2026-04-30 09:54 52.17474 20.97076 344 ft 26 kts 152°
2026-04-30 09:54 52.17358 20.97186 340 ft 4 kts 148°
2026-04-30 09:54 52.17348 20.97186 336 ft 2 kts 197°
2026-04-30 09:55 52.17335 20.97164 341 ft 3 kts 239°
2026-04-30 09:55 52.17319 20.97119 350 ft 1 kts 241°
2026-04-30 09:55 52.17317 20.97111 349 ft 0 kts 241°